Flag for Russia

Past Weather in Rostov-on-Don, Russia — Yesterday and Last 2 Weeks

Now
72 °F

Clear.


Feels Like: 76 °F
Forecast: 81 / 62 °F
Wind: 6 mph from Northeast

Location: Krasnodar Airport
Current Time: Sep 25, 2020 at 8:13:40 pm
Latest Report: Sep 25, 2020 at 7:30 pm
Visibility: 10 mi
Pressure29.83 "Hg
Humidity: 57%
Dew Point: 55 °F
Location of Rostov-on-DonLocation

Past Weather in Rostov-on-Don — Graph

°F

Rostov-on-Don Temperature Yesterday

Maximum temperature yesterday: 84 °F (at 3:30 pm)
Minimum temperature yesterday: 48 °F (at 5:30 am)
Average temperature yesterday: 65 °F

High & Low Weather Summary for the Past Weeks

 TemperatureHumidityPressure
High91 °F (Sep 12, 4:30 pm)100% (Sep 20, 3:30 am)30.18 "Hg (Sep 20, 3:30 am)
Low43 °F (Sep 20, 3:30 am)23% (Sep 17, 4:00 pm)29.83 "Hg (Sep 18, 6:30 am)
Average67 °F57%30.02 "Hg
* Reported Sep 10 7:00 pm — Sep 25 7:00 pm, Rostov-on-Don. Weather by CustomWeather, © 2020

Note: Actual official high and low records may vary slightly from our data, if they occured in-between our weather recording intervals... More about our weather records

Rostov-on-Don Weather History for the Previous 24 Hours

Scroll right to see more
 ConditionsComfort  
Time TempWeatherWind HumidityBarometerVisibility
7:00 pm
Fri, Sep 25
73 °FClear.6 mph53%29.83 "Hg10 mi
6:30 pm75 °FClear.6 mph50%29.83 "Hg10 mi
6:00 pm77 °FSunny.6 mph47%29.83 "Hg10 mi
5:30 pm81 °FSunny.3 mph42%29.83 "Hg10 mi
5:00 pm84 °FSunny.8 mph37%29.83 "Hg10 mi
4:00 pm84 °FSunny.6 mph33%29.83 "Hg10 mi
3:30 pm84 °FPassing clouds.3 mph35%29.86 "HgN/A
3:00 pm84 °FPassing clouds.6 mph35%29.86 "HgN/A
2:30 pm84 °FSunny.3 mph40%29.86 "Hg10 mi
2:00 pm84 °FPassing clouds.6 mph40%29.86 "HgN/A
1:30 pm82 °FPassing clouds.6 mph40%29.86 "HgN/A
1:00 pm81 °FPassing clouds.3 mph48%29.86 "HgN/A
12:30 pm79 °FPassing clouds.6 mph51%29.89 "HgN/A
12:00 pm79 °FPassing clouds.3 mph48%29.89 "HgN/A
11:30 am77 °FSunny.6 mph51%29.89 "Hg10 mi
11:00 am75 °FSunny.3 mph54%29.89 "Hg10 mi
10:30 am72 °FPassing clouds.3 mph65%29.89 "HgN/A
10:00 am68 °FPassing clouds.3 mph73%29.89 "HgN/A
9:30 am66 °FSunny.1 mph73%29.92 "Hg10 mi
9:00 am64 °FPassing clouds.3 mph78%29.89 "HgN/A
8:30 am63 °FPassing clouds.3 mph77%29.92 "HgN/A
8:00 am61 °FSunny.1 mph83%29.89 "Hg10 mi
7:30 am57 °FSunny.3 mph88%29.89 "Hg10 mi
7:00 am55 °FPassing clouds.3 mph88%29.89 "HgN/A
6:30 am52 °FSunny.1 mph94%29.92 "Hg10 mi
6:00 am50 °FClear.1 mph94%29.92 "Hg10 mi
5:30 am52 °FClear.1 mph88%29.89 "Hg10 mi
5:00 am52 °FClear.3 mph82%29.92 "Hg10 mi
4:00 am54 °FClear.1 mph82%29.92 "Hg10 mi
3:30 am55 °FClear.3 mph82%29.89 "Hg10 mi
3:00 am55 °FClear.1 mph88%29.89 "Hg10 mi
2:30 am54 °FClear.No wind88%29.92 "Hg10 mi
2:00 am57 °FClear.1 mph88%29.92 "Hg10 mi
1:30 am55 °FClear.No wind88%29.92 "Hg10 mi
1:00 am57 °FClear.1 mph82%29.92 "Hg10 mi
12:30 am57 °FClear.1 mph88%29.92 "Hg10 mi
12:00 am59 °FPassing clouds.3 mph77%29.92 "HgN/A
11:30 pm
Thu, Sep 24
59 °FClear.1 mph77%29.92 "Hg10 mi
11:00 pm61 °FClear.3 mph72%29.92 "Hg10 mi
10:30 pm61 °FClear.3 mph72%29.92 "Hg10 mi
10:00 pm63 °FClear.3 mph68%29.92 "Hg10 mi
9:30 pm63 °FClear.1 mph73%29.92 "Hg10 mi
9:00 pm63 °FClear.3 mph73%29.92 "Hg10 mi
8:30 pm64 °FPassing clouds.3 mph73%29.92 "HgN/A
8:00 pm64 °FClear.1 mph64%29.92 "Hg10 mi
Weather by CustomWeather, © 2020

See weather overview